• In Russia
  • List of Countries
  • For 7 days
  • Water Temperature
  • Satellite Maps
  • Weather Map
  • Weather Widgets
  • user-avatar
    Login

    Hourly Weather Pilisvorosvar

    Today, 13 December, Wednesday

    Time Temperature Precipitation Wind Pressure Humidity
    00:00 +4°C° 0.5 mm 4 mps 744 mmHg 75%
    01:00 +3°C° 0 mm 6 mps 744 mmHg 72%
    02:00 +2°C° 0.3 mm 5 mps 744 mmHg 72%
    03:00 +2°C° 0.3 mm 5 mps 744 mmHg 72%
    04:00 +3°C° 0.3 mm 4 mps 744 mmHg 71%
    05:00 +3°C° 0.1 mm 4 mps 745 mmHg 73%
    06:00 +3°C° 0.1 mm 4 mps 745 mmHg 74%
    07:00 +2°C° 0.1 mm 3 mps 745 mmHg 75%
    08:00 +3°C° 0 mm 3 mps 745 mmHg 73%
    09:00 +3°C° 0 mm 3 mps 745 mmHg 72%
    10:00 +3°C° 0 mm 3 mps 746 mmHg 70%
    11:00 +3°C° 0 mm 3 mps 745 mmHg 68%
    12:00 +4°C° 0 mm 3 mps 745 mmHg 66%
    13:00 +5°C° 0 mm 2 mps 745 mmHg 63%
    14:00 +4°C° 0 mm 2 mps 745 mmHg 66%
    15:00 +5°C° 0 mm 1 mps 744 mmHg 68%
    16:00 +4°C° 0 mm 1 mps 744 mmHg 71%
    17:00 +4°C° 0 mm 1 mps 744 mmHg 72%
    18:00 +3°C° 0 mm 1 mps 743 mmHg 74%
    19:00 +3°C° 0 mm 1 mps 743 mmHg 75%
    20:00 +3°C° 0 mm 1 mps 742 mmHg 76%
    21:00 +2°C° 0 mm 1 mps 742 mmHg 77%
    22:00 +1°C° 0 mm 2 mps 741 mmHg 78%
    23:00 +1°C° 0 mm 2 mps 741 mmHg 80%

    Tomorrow, 14 December, Thursday

    Time Temperature Precipitation Wind Pressure Humidity
    00:00 0°C° 0 mm 3 mps 740 mmHg 81%
    01:00 0°C° 0 mm 3 mps 739 mmHg 82%
    02:00 -1°C° 0 mm 4 mps 739 mmHg 84%
    03:00 -1°C° 0 mm 4 mps 738 mmHg 87%
    04:00 -1°C° 0 mm 4 mps 737 mmHg 89%
    05:00 0°C° 0 mm 4 mps 737 mmHg 88%
    06:00 +1°C° 0 mm 5 mps 736 mmHg 87%
    07:00 +1°C° 0 mm 5 mps 736 mmHg 86%
    08:00 +3°C° 0 mm 4 mps 736 mmHg 83%
    09:00 +4°C° 0 mm 4 mps 736 mmHg 80%
    10:00 +4°C° 0 mm 4 mps 736 mmHg 78%
    11:00 +5°C° 0.2 mm 4 mps 736 mmHg 78%
    12:00 +5°C° 0.2 mm 4 mps 737 mmHg 79%
    13:00 +5°C° 0.2 mm 4 mps 737 mmHg 79%
    14:00 +5°C° 0.2 mm 3 mps 737 mmHg 75%
    15:00 +5°C° 0.2 mm 3 mps 737 mmHg 71%
    16:00 +4°C° 0.2 mm 3 mps 738 mmHg 67%
    17:00 +5°C° 0 mm 2 mps 738 mmHg 64%
    18:00 +5°C° 0 mm 2 mps 738 mmHg 62%
    19:00 +5°C° 0 mm 1 mps 738 mmHg 60%
    20:00 +4°C° 0.3 mm 2 mps 738 mmHg 63%
    21:00 +4°C° 0.3 mm 2 mps 738 mmHg 66%
    22:00 +4°C° 0.3 mm 2 mps 738 mmHg 69%
    23:00 +2°C° 0.2 mm 3 mps 737 mmHg 72%

    Day after tomorrow, 15 December, Friday

    Time Temperature Precipitation Wind Pressure Humidity
    00:00 +2°C° 0.2 mm 3 mps 736 mmHg 76%
    01:00 +1°C° 0.2 mm 4 mps 735 mmHg 80%
    02:00 +1°C° 0 mm 4 mps 735 mmHg 82%
    03:00 +1°C° 0 mm 4 mps 734 mmHg 85%
    04:00 +3°C° 0 mm 4 mps 733 mmHg 87%
    05:00 +3°C° 0 mm 4 mps 733 mmHg 89%
    06:00 +3°C° 0 mm 3 mps 733 mmHg 91%
    07:00 +5°C° 0 mm 2 mps 732 mmHg 93%
    08:00 +5°C° 0.4 mm 2 mps 732 mmHg 92%
    09:00 +6°C° 0.4 mm 2 mps 733 mmHg 92%
    10:00 +6°C° 0.4 mm 2 mps 733 mmHg 92%
    11:00 +5°C° 0.6 mm 3 mps 733 mmHg 89%
    12:00 +5°C° 0.6 mm 3 mps 733 mmHg 86%
    13:00 +4°C° 0.6 mm 4 mps 733 mmHg 84%
    14:00 +4°C° 0.1 mm 3 mps 734 mmHg 83%
    15:00 +5°C° 0.1 mm 2 mps 734 mmHg 82%
    16:00 +5°C° 0.1 mm 2 mps 734 mmHg 81%
    17:00 +5°C° 0.6 mm 1 mps 733 mmHg 82%
    18:00 +5°C° 0.6 mm 1 mps 733 mmHg 82%
    19:00 +5°C° 0.6 mm 1 mps 733 mmHg 83%
    20:00 +4°C° 1.4 mm 2 mps 733 mmHg 83%
    21:00 +3°C° 1.4 mm 2 mps 732 mmHg 83%
    22:00 +2°C° 1.4 mm 3 mps 732 mmHg 83%
    23:00 +2°C° 1.2 mm 3 mps 732 mmHg 84%

    16 December, Saturday

    Time Temperature Precipitation Wind Pressure Humidity
    00:00 +1°C° 1.2 mm 4 mps 731 mmHg 85%
    01:00 +1°C° 1.2 mm 4 mps 731 mmHg 85%
    02:00 +1°C° 0.2 mm 4 mps 731 mmHg 85%
    03:00 +1°C° 0.2 mm 3 mps 732 mmHg 84%
    04:00 +1°C° 0.2 mm 3 mps 732 mmHg 84%
    05:00 +1°C° 0.2 mm 3 mps 732 mmHg 84%
    06:00 +1°C° 0.2 mm 3 mps 733 mmHg 84%
    07:00 +1°C° 0.2 mm 3 mps 734 mmHg 85%
    08:00 +1°C° 0.1 mm 3 mps 734 mmHg 83%
    09:00 +1°C° 0.1 mm 3 mps 735 mmHg 82%
    10:00 +2°C° 0.1 mm 3 mps 736 mmHg 81%
    11:00 +1°C° 0 mm 4 mps 736 mmHg 80%
    12:00 +1°C° 0 mm 4 mps 736 mmHg 79%
    13:00 +3°C° 0 mm 4 mps 737 mmHg 78%
    14:00 +1°C° 0 mm 4 mps 737 mmHg 80%
    15:00 +2°C° 0 mm 3 mps 738 mmHg 82%
    16:00 +1°C° 0 mm 3 mps 739 mmHg 83%
    17:00 +1°C° 0 mm 3 mps 739 mmHg 83%
    18:00 0°C° 0 mm 3 mps 740 mmHg 83%
    19:00 0°C° 0 mm 3 mps 740 mmHg 83%
    20:00 0°C° 0 mm 3 mps 741 mmHg 82%
    21:00 0°C° 0 mm 3 mps 741 mmHg 82%
    22:00 -1°C° 0 mm 4 mps 741 mmHg 82%
    23:00 -2°C° 0 mm 4 mps 742 mmHg 83%

    17 December, Sunday

    Time Temperature Precipitation Wind Pressure Humidity
    00:00 -2°C° 0 mm 4 mps 742 mmHg 84%
    01:00 -2°C° 0 mm 4 mps 742 mmHg 84%
    02:00 -2°C° 0 mm 4 mps 742 mmHg 84%
    03:00 -2°C° 0 mm 4 mps 742 mmHg 84%
    04:00 -2°C° 0 mm 4 mps 743 mmHg 83%
    05:00 -2°C° 0 mm 4 mps 743 mmHg 83%
    06:00 -2°C° 0 mm 4 mps 743 mmHg 83%
    07:00 -3°C° 0 mm 4 mps 744 mmHg 83%
    08:00 -2°C° 0 mm 4 mps 744 mmHg 81%
    09:00 -1°C° 0 mm 5 mps 745 mmHg 78%
    10:00 0°C° 0 mm 5 mps 745 mmHg 75%
    11:00 0°C° 0 mm 5 mps 745 mmHg 74%
    12:00 +1°C° 0 mm 5 mps 745 mmHg 72%
    13:00 +1°C° 0 mm 5 mps 745 mmHg 71%
    14:00 0°C° 0 mm 5 mps 746 mmHg 73%
    15:00 0°C° 0 mm 5 mps 746 mmHg 76%
    16:00 -1°C° 0 mm 4 mps 747 mmHg 78%
    17:00 -1°C° 0 mm 4 mps 747 mmHg 79%
    18:00 -2°C° 0 mm 4 mps 748 mmHg 80%
    19:00 -2°C° 0 mm 4 mps 748 mmHg 80%
    20:00 -2°C° 0 mm 4 mps 749 mmHg 81%
    21:00 -3°C° 0 mm 4 mps 749 mmHg 82%
    22:00 -2°C° 0 mm 3 mps 749 mmHg 83%
    23:00 -2°C° 0 mm 3 mps 750 mmHg 83%

    18 December, Monday

    Time Temperature Precipitation Wind Pressure Humidity
    00:00 -2°C° 0 mm 3 mps 750 mmHg 84%
    01:00 -2°C° 0 mm 3 mps 750 mmHg 84%
    02:00 -2°C° 0 mm 3 mps 750 mmHg 84%
    03:00 -2°C° 0 mm 3 mps 750 mmHg 84%
    04:00 -4°C° 0 mm 3 mps 750 mmHg 83%
    05:00 -4°C° 0 mm 3 mps 751 mmHg 83%
    06:00 -4°C° 0 mm 3 mps 751 mmHg 83%
    07:00 -4°C° 0 mm 3 mps 751 mmHg 83%
    08:00 -2°C° 0 mm 3 mps 751 mmHg 81%
    09:00 -1°C° 0 mm 3 mps 751 mmHg 78%
    10:00 -1°C° 0 mm 3 mps 751 mmHg 75%
    11:00 0°C° 0 mm 3 mps 751 mmHg 74%
    12:00 0°C° 0 mm 3 mps 751 mmHg 72%
    13:00 +1°C° 0 mm 3 mps 750 mmHg 70%
    14:00 0°C° 0 mm 3 mps 750 mmHg 75%
    15:00 -1°C° 0 mm 2 mps 750 mmHg 79%
    16:00 0°C° 0 mm 1 mps 750 mmHg 83%
    17:00 0°C° 0 mm 1 mps 750 mmHg 84%
    18:00 0°C° 0 mm 1 mps 750 mmHg 86%
    19:00 0°C° 0 mm 1 mps 750 mmHg 87%
    20:00 0°C° 0 mm 1 mps 750 mmHg 87%
    21:00 -2°C° 0 mm 0 mps 750 mmHg 87%
    22:00 -2°C° 0 mm 0 mps 750 mmHg 87%
    23:00 -2°C° 0 mm 0 mps 750 mmHg 86%
    Show more